Location: Newark
(40.9833°N, 0.0333°W)
Time: 17:25:14
(UTC+00:00)

deb Explorer IX - Pass Details

Date: 05 November 2020
Orbit: 538 x 1104 km, 38.8° (Epoch: 22 November)

Event Time Altitude Azimuth Distance (km) Brightness Sun altitude
Rises 03:51:36 0° 258° (WSW) 2,994 - -31.3°
Reaches altitude 10° 03:53:48 10° 256° (WSW) 2,157 - -30.9°
Maximum altitude 03:58:50 69° 174° (S) 836 - -30.0°
Exits shadow 03:59:36 61° 127° (SE) 901 ? -29.8°
Drops below altitude 10° 04:04:50 10° 92° (E) 2,552 ? -28.8°
Sets 04:07:38 0° 90° (E) 3,586 ? -28.3°
